Location: Vesunti
(61.5000°N, 22.8333°E)
Time: 19:36:11
(UTC+00:00)

Cosmos 1943 Rocket - Pass Details

Date: 17 February 2020
Orbit: 814 x 842 km, 71.0° (Epoch: 30 March)

Event Time Altitude Azimuth Distance (km) Brightness Sun altitude
Exits shadow 01:08:22 40° 68° (ENE) 1,200 3.3 -34.2°
Drops below altitude 10° 01:12:23 10° 104° (ESE) 2,409 4.9 -33.8°
Sets 01:14:54 0° 111° (ESE) 3,339 5.6 -33.6°
